Frontier Oasis — 3FLC2 — position and weather

sailwx.info

Track history (hours):
 
Tides and Currents Weather Stations Pressure Air Temp Water Temp Dewpoint Dewpoint Depression Visibility Wind Speed Wind Dir Waves Ship Positions

Frontier Oasis

Last reported at 2014-Jul-28 19:13 UTC. Time now 2014-Jul-28 20:29 UTC.
Position N 38°51' E 118°38'.

Length 292 m; draft 14.2 m.

Type: Cargo ship. MMSI: 371910000.

Date/timePositionNaut miles runAvg speedWind from/ knotsBaromVisibWave heightAir tempDewpointWater temp
2014-Jul-28 19:13N 38°51' E 118°38'0 0.0
2014-Jul-28 16:19N 38°51' E 118°38'0 0.2
2014-Jul-28 15:04N 38°51' E 118°39'0 0.1
2014-Jul-28 14:31N 38°51' E 118°39'0 0.0
2014-Jul-28 13:31N 38°51' E 118°39'0 0.0
2014-Jul-28 12:28N 38°51' E 118°39'0 0.0
2014-Jul-28 00:23N 38°51' E 118°39'0 0.0
2014-Jul-27 23:33N 38°51' E 118°39'0 0.0
2014-Jul-27 22:33N 38°51' E 118°39'0 0.0
2014-Jul-27 21:33N 38°51' E 118°39'0 0.2
2014-Jul-27 20:33N 38°51' E 118°39'0 0.1
2014-Jul-27 19:34N 38°51' E 118°38'0 0.1
2014-Jul-27 18:33N 38°51' E 118°38'0 0.0
2014-Jul-27 17:33N 38°51' E 118°38'0 0.0
2014-Jul-27 16:34N 38°51' E 118°38'0 0.1
2014-Jul-27 15:08N 38°51' E 118°38'0 0.0
2014-Jul-27 06:28N 38°51' E 118°38'0 0.0
2014-Jul-26 22:29N 38°51' E 118°39'0 0.0
2014-Jul-26 21:33N 38°51' E 118°39'0 0.0
2014-Jul-26 20:34N 38°51' E 118°39'0 0.2
2014-Jul-26 19:33N 38°51' E 118°38'0 0.1
2014-Jul-26 18:34N 38°51' E 118°38'0 0.0
2014-Jul-26 17:34N 38°51' E 118°38'0 0.0
2014-Jul-26 16:33N 38°51' E 118°38'0 0.0
2014-Jul-26 15:33N 38°51' E 118°38'0 0.3
2014-Jul-26 14:34N 38°51' E 118°39'0 0.0
2014-Jul-26 12:34N 38°51' E 118°39'0 0.0
2014-Jul-26 09:33N 38°51' E 118°39'0 0.1
2014-Jul-26 08:33N 38°51' E 118°39'0 0.2
2014-Jul-26 07:22N 38°51' E 118°38'0 0.1
2014-Jul-26 06:30N 38°51' E 118°38'1 0.1
2014-Jul-25 20:23N 38°50' E 118°40'8 6.2
2014-Jul-25 19:07N 38°49' E 118°50'12911.9
2014-Jul-25 08:17N 38°22' E 121°31'3813.0
2014-Jul-25 05:22N 38°04' E 122°14'205 7.4
2014-Jul-24 01:29N 35°09' E 120°01'1213.1
2014-Jul-24 00:33N 35°04' E 119°47'10 9.8
2014-Jul-23 23:33N 35°03' E 119°35'1010.0
2014-Jul-23 22:33N 35°04' E 119°23'1 1.1
2014-Jul-23 21:25N 35°05' E 119°22'0 0.0
2014-Jul-23 20:31N 35°05' E 119°22'0 0.0
2014-Jul-23 19:25N 35°05' E 119°22'0 0.0
2014-Jul-23 18:25N 35°05' E 119°22'0 0.0
2014-Jul-23 17:31N 35°05' E 119°22'0 0.0
2014-Jul-23 16:31N 35°05' E 119°22'0 0.2
2014-Jul-23 15:31N 35°05' E 119°22'0 0.2
2014-Jul-23 14:31N 35°05' E 119°22'0 0.0
2014-Jul-23 13:31N 35°05' E 119°22'0 0.0
2014-Jul-23 12:31N 35°05' E 119°22'0 0.0
2014-Jul-23 11:31N 35°05' E 119°22'0 0.0
2014-Jul-23 10:31N 35°05' E 119°22'0 0.0
2014-Jul-23 09:31N 35°05' E 119°22'0 0.0
2014-Jul-23 08:19N 35°05' E 119°22'0 0.0
2014-Jul-23 07:31N 35°05' E 119°22'0 0.0
2014-Jul-23 06:31N 35°05' E 119°22'0 0.0
2014-Jul-23 05:31N 35°05' E 119°22'0 0.0
2014-Jul-23 04:31N 35°05' E 119°22'0 0.0
2014-Jul-23 03:25N 35°05' E 119°22'0 0.0
2014-Jul-23 02:20N 35°05' E 119°22'0 0.0
2014-Jul-23 01:26N 35°05' E 119°22'0 0.0
2014-Jul-23 00:32N 35°05' E 119°22'0 0.0
2014-Jul-22 23:32N 35°05' E 119°22'0 0.0
2014-Jul-22 22:20N 35°05' E 119°22'0 0.0
2014-Jul-22 21:20N 35°05' E 119°22'0 0.0
2014-Jul-22 20:32N 35°05' E 119°22'0 0.0
2014-Jul-22 19:20N 35°05' E 119°22'0 0.0
2014-Jul-22 18:32N 35°05' E 119°22'0 0.0
2014-Jul-22 17:32N 35°05' E 119°22'0 0.0
2014-Jul-22 16:25N 35°05' E 119°22'0 0.0
2014-Jul-22 15:31N 35°05' E 119°22'0 0.0
2014-Jul-22 14:32N 35°05' E 119°22'0 0.0
2014-Jul-22 13:31N 35°05' E 119°22'0 0.0
2014-Jul-22 12:32N 35°05' E 119°22'0 0.0
2014-Jul-22 11:07N 35°05' E 119°22'0 0.0
2014-Jul-22 10:31N 35°05' E 119°22'0 0.0
2014-Jul-22 09:31N 35°05' E 119°22'0 0.0
2014-Jul-22 08:25N 35°05' E 119°22'0 0.1
2014-Jul-22 07:33N 35°05' E 119°22'4 4.2
2014-Jul-22 06:30N 35°03' E 119°27'8 8.5
2014-Jul-22 05:34N 35°04' E 119°37'3 3.2
2014-Jul-22 04:34N 35°04' E 119°41'4 4.0
2014-Jul-22 03:33N 35°04' E 119°46'4 3.4
2014-Jul-22 02:30N 35°05' E 119°50'0 0.2
2014-Jul-22 01:25N 35°05' E 119°50'0 0.2
2014-Jul-22 00:25N 35°05' E 119°50'0 0.0
2014-Jul-21 23:25N 35°05' E 119°50'0 0.0
2014-Jul-21 22:31N 35°05' E 119°50'0 0.1
2014-Jul-21 21:30N 35°05' E 119°50'0 0.0
2014-Jul-21 20:31N 35°05' E 119°50'0 0.0
2014-Jul-21 20:13N 35°05' E 119°50'0 0.2
2014-Jul-21 19:31N 35°05' E 119°50'0 0.1
2014-Jul-21 18:31N 35°05' E 119°50'0 0.0
2014-Jul-21 17:25N 35°05' E 119°50'0 0.1
2014-Jul-21 16:31N 35°05' E 119°50'0 0.1
2014-Jul-21 15:31N 35°05' E 119°50'0 0.1
2014-Jul-21 14:30N 35°05' E 119°50'2 1.6
2014-Jul-21 13:33N 35°06' E 119°51'7 6.9
2014-Jul-21 12:32N 35°13' E 119°53'4 4.3
2014-Jul-21 11:30N 35°16' E 119°49'0 0.0
2014-Jul-21 10:24N 35°16' E 119°49'0 0.0
2014-Jul-21 09:30N 35°16' E 119°49'0 0.0
2014-Jul-21 08:30N 35°16' E 119°49'0 0.1
2014-Jul-21 07:30N 35°16' E 119°49'0 0.2
2014-Jul-21 06:23N 35°16' E 119°48'0 0.1
2014-Jul-21 05:17N 35°16' E 119°48'0 0.0
2014-Jul-21 04:18N 35°16' E 119°48'0 0.1
2014-Jul-21 03:29N 35°16' E 119°48'0 0.0
2014-Jul-21 02:18N 35°16' E 119°48'0 0.1
2014-Jul-21 01:30N 35°16' E 119°48'0 0.2
2014-Jul-21 00:30N 35°16' E 119°49'0 0.1
2014-Jul-20 23:30N 35°16' E 119°49'0 0.1
2014-Jul-20 22:30N 35°16' E 119°49'0 0.0
2014-Jul-20 21:30N 35°16' E 119°49'0 0.0
2014-Jul-20 20:30N 35°16' E 119°49'0 0.1
2014-Jul-20 19:30N 35°16' E 119°49'0 0.1
2014-Jul-20 18:30N 35°16' E 119°49'0 0.2
2014-Jul-20 17:30N 35°16' E 119°49'0 0.0
2014-Jul-20 16:30N 35°16' E 119°48'0 0.0
2014-Jul-20 15:30N 35°16' E 119°48'0 0.0
2014-Jul-20 14:29N 35°16' E 119°48'0 0.1
2014-Jul-20 13:30N 35°16' E 119°48'0 0.2
2014-Jul-20 12:30N 35°16' E 119°49'0 0.1
2014-Jul-20 11:30N 35°16' E 119°49'0 0.1
2014-Jul-20 10:30N 35°16' E 119°49'0 0.0
2014-Jul-20 09:29N 35°16' E 119°49'0 0.0
2014-Jul-20 08:30N 35°16' E 119°49'0 0.0
2014-Jul-20 07:29N 35°16' E 119°49'0 0.2
2014-Jul-20 06:30N 35°16' E 119°49'0 0.3
2014-Jul-20 05:30N 35°16' E 119°48'0 0.0
2014-Jul-20 04:30N 35°16' E 119°48'0 0.0
2014-Jul-20 03:29N 35°16' E 119°48'0 0.1
2014-Jul-20 02:30N 35°16' E 119°48'0 0.0
2014-Jul-20 01:30N 35°16' E 119°48'0 0.0
2014-Jul-20 00:30N 35°16' E 119°48'0 0.1
2014-Jul-19 23:30N 35°16' E 119°48'0 0.2
2014-Jul-19 22:30N 35°16' E 119°49'0 0.1
2014-Jul-19 21:29N 35°16' E 119°49'0 0.0
2014-Jul-19 20:30N 35°16' E 119°49'0 0.1
2014-Jul-19 19:30N 35°16' E 119°49'0 0.1
2014-Jul-19 18:30N 35°16' E 119°49'0 0.1
2014-Jul-19 17:24N 35°16' E 119°49'0 0.1
2014-Jul-19 16:32N 35°16' E 119°49'0 0.1
2014-Jul-19 15:29N 35°16' E 119°48'0 0.0
2014-Jul-19 14:29N 35°16' E 119°48'0 0.1
2014-Jul-19 13:30N 35°16' E 119°48'0 0.0
2014-Jul-19 12:30N 35°16' E 119°48'0 0.2
2014-Jul-19 11:24N 35°16' E 119°49'0 0.1
2014-Jul-19 10:30N 35°16' E 119°49'0 0.1
2014-Jul-19 09:30N 35°16' E 119°49'0 0.0
2014-Jul-19 08:30N 35°16' E 119°49'0 0.0
2014-Jul-19 07:30N 35°16' E 119°49'0 0.0
2014-Jul-19 06:30N 35°16' E 119°49'0 0.3
2014-Jul-19 05:29N 35°16' E 119°48'0 0.1
2014-Jul-19 04:30N 35°16' E 119°48'0 0.0
2014-Jul-19 03:30N 35°16' E 119°48'0 0.0
2014-Jul-19 02:30N 35°16' E 119°48'0 0.0
2014-Jul-19 01:24N 35°16' E 119°48'0 0.1
2014-Jul-19 00:24N 35°16' E 119°48'0 0.0
2014-Jul-18 23:30N 35°16' E 119°48'0 0.2
2014-Jul-18 22:30N 35°16' E 119°49'0 0.1
2014-Jul-18 21:23N 35°16' E 119°49'0 0.0
2014-Jul-18 20:29N 35°16' E 119°49'0 0.0
2014-Jul-18 19:30N 35°16' E 119°49'  
Track history (hours):
 
Tides and Currents Weather Stations Pressure Air Temp Water Temp Dewpoint Dewpoint Depression Visibility Wind Speed Wind Dir Waves Ship Positions

Frontier Oasis

Last reported at 2014-Jul-28 19:13 UTC. Time now 2014-Jul-28 20:29 UTC.
Position N 38°51' E 118°38'.

Length 292 m; draft 14.2 m.

Type: Cargo ship. MMSI: 371910000.

Date/timePositionNaut miles runAvg speedWind from/ knotsBaromVisibWave heightAir tempDewpointWater temp
2014-Jul-28 19:13N 38°51' E 118°38'0 0.0
2014-Jul-28 16:19N 38°51' E 118°38'0 0.2
2014-Jul-28 15:04N 38°51' E 118°39'0 0.1
2014-Jul-28 14:31N 38°51' E 118°39'0 0.0
2014-Jul-28 13:31N 38°51' E 118°39'0 0.0
2014-Jul-28 12:28N 38°51' E 118°39'0 0.0
2014-Jul-28 00:23N 38°51' E 118°39'0 0.0
2014-Jul-27 23:33N 38°51' E 118°39'0 0.0
2014-Jul-27 22:33N 38°51' E 118°39'0 0.0
2014-Jul-27 21:33N 38°51' E 118°39'0 0.2
2014-Jul-27 20:33N 38°51' E 118°39'0 0.1
2014-Jul-27 19:34N 38°51' E 118°38'0 0.1
2014-Jul-27 18:33N 38°51' E 118°38'0 0.0
2014-Jul-27 17:33N 38°51' E 118°38'0 0.0
2014-Jul-27 16:34N 38°51' E 118°38'0 0.1
2014-Jul-27 15:08N 38°51' E 118°38'0 0.0
2014-Jul-27 06:28N 38°51' E 118°38'0 0.0
2014-Jul-26 22:29N 38°51' E 118°39'0 0.0
2014-Jul-26 21:33N 38°51' E 118°39'0 0.0
2014-Jul-26 20:34N 38°51' E 118°39'0 0.2
2014-Jul-26 19:33N 38°51' E 118°38'0 0.1
2014-Jul-26 18:34N 38°51' E 118°38'0 0.0
2014-Jul-26 17:34N 38°51' E 118°38'0 0.0
2014-Jul-26 16:33N 38°51' E 118°38'0 0.0
2014-Jul-26 15:33N 38°51' E 118°38'0 0.3
2014-Jul-26 14:34N 38°51' E 118°39'0 0.0
2014-Jul-26 12:34N 38°51' E 118°39'0 0.0
2014-Jul-26 09:33N 38°51' E 118°39'0 0.1
2014-Jul-26 08:33N 38°51' E 118°39'0 0.2
2014-Jul-26 07:22N 38°51' E 118°38'0 0.1
2014-Jul-26 06:30N 38°51' E 118°38'1 0.1
2014-Jul-25 20:23N 38°50' E 118°40'8 6.2
2014-Jul-25 19:07N 38°49' E 118°50'12911.9
2014-Jul-25 08:17N 38°22' E 121°31'3813.0
2014-Jul-25 05:22N 38°04' E 122°14'205 7.4
2014-Jul-24 01:29N 35°09' E 120°01'1213.1
2014-Jul-24 00:33N 35°04' E 119°47'10 9.8
2014-Jul-23 23:33N 35°03' E 119°35'1010.0
2014-Jul-23 22:33N 35°04' E 119°23'1 1.1
2014-Jul-23 21:25N 35°05' E 119°22'0 0.0
2014-Jul-23 20:31N 35°05' E 119°22'0 0.0
2014-Jul-23 19:25N 35°05' E 119°22'0 0.0
2014-Jul-23 18:25N 35°05' E 119°22'0 0.0
2014-Jul-23 17:31N 35°05' E 119°22'0 0.0
2014-Jul-23 16:31N 35°05' E 119°22'0 0.2
2014-Jul-23 15:31N 35°05' E 119°22'0 0.2
2014-Jul-23 14:31N 35°05' E 119°22'0 0.0
2014-Jul-23 13:31N 35°05' E 119°22'0 0.0
2014-Jul-23 12:31N 35°05' E 119°22'0 0.0
2014-Jul-23 11:31N 35°05' E 119°22'0 0.0
2014-Jul-23 10:31N 35°05' E 119°22'0 0.0
2014-Jul-23 09:31N 35°05' E 119°22'0 0.0
2014-Jul-23 08:19N 35°05' E 119°22'0 0.0
2014-Jul-23 07:31N 35°05' E 119°22'0 0.0
2014-Jul-23 06:31N 35°05' E 119°22'0 0.0
2014-Jul-23 05:31N 35°05' E 119°22'0 0.0
2014-Jul-23 04:31N 35°05' E 119°22'0 0.0
2014-Jul-23 03:25N 35°05' E 119°22'0 0.0
2014-Jul-23 02:20N 35°05' E 119°22'0 0.0
2014-Jul-23 01:26N 35°05' E 119°22'0 0.0
2014-Jul-23 00:32N 35°05' E 119°22'0 0.0
2014-Jul-22 23:32N 35°05' E 119°22'0 0.0
2014-Jul-22 22:20N 35°05' E 119°22'0 0.0
2014-Jul-22 21:20N 35°05' E 119°22'0 0.0
2014-Jul-22 20:32N 35°05' E 119°22'0 0.0
2014-Jul-22 19:20N 35°05' E 119°22'0 0.0
2014-Jul-22 18:32N 35°05' E 119°22'0 0.0
2014-Jul-22 17:32N 35°05' E 119°22'0 0.0
2014-Jul-22 16:25N 35°05' E 119°22'0 0.0
2014-Jul-22 15:31N 35°05' E 119°22'0 0.0
2014-Jul-22 14:32N 35°05' E 119°22'0 0.0
2014-Jul-22 13:31N 35°05' E 119°22'0 0.0
2014-Jul-22 12:32N 35°05' E 119°22'0 0.0
2014-Jul-22 11:07N 35°05' E 119°22'0 0.0
2014-Jul-22 10:31N 35°05' E 119°22'0 0.0
2014-Jul-22 09:31N 35°05' E 119°22'0 0.0
2014-Jul-22 08:25N 35°05' E 119°22'0 0.1
2014-Jul-22 07:33N 35°05' E 119°22'4 4.2
2014-Jul-22 06:30N 35°03' E 119°27'8 8.5
2014-Jul-22 05:34N 35°04' E 119°37'3 3.2
2014-Jul-22 04:34N 35°04' E 119°41'4 4.0
2014-Jul-22 03:33N 35°04' E 119°46'4 3.4
2014-Jul-22 02:30N 35°05' E 119°50'0 0.2
2014-Jul-22 01:25N 35°05' E 119°50'0 0.2
2014-Jul-22 00:25N 35°05' E 119°50'0 0.0
2014-Jul-21 23:25N 35°05' E 119°50'0 0.0
2014-Jul-21 22:31N 35°05' E 119°50'0 0.1
2014-Jul-21 21:30N 35°05' E 119°50'0 0.0
2014-Jul-21 20:31N 35°05' E 119°50'0 0.0
2014-Jul-21 20:13N 35°05' E 119°50'0 0.2
2014-Jul-21 19:31N 35°05' E 119°50'0 0.1
2014-Jul-21 18:31N 35°05' E 119°50'0 0.0
2014-Jul-21 17:25N 35°05' E 119°50'0 0.1
2014-Jul-21 16:31N 35°05' E 119°50'0 0.1
2014-Jul-21 15:31N 35°05' E 119°50'0 0.1
2014-Jul-21 14:30N 35°05' E 119°50'2 1.6
2014-Jul-21 13:33N 35°06' E 119°51'7 6.9
2014-Jul-21 12:32N 35°13' E 119°53'4 4.3
2014-Jul-21 11:30N 35°16' E 119°49'0 0.0
2014-Jul-21 10:24N 35°16' E 119°49'0 0.0
2014-Jul-21 09:30N 35°16' E 119°49'0 0.0
2014-Jul-21 08:30N 35°16' E 119°49'0 0.1
2014-Jul-21 07:30N 35°16' E 119°49'0 0.2
2014-Jul-21 06:23N 35°16' E 119°48'0 0.1
2014-Jul-21 05:17N 35°16' E 119°48'0 0.0
2014-Jul-21 04:18N 35°16' E 119°48'0 0.1
2014-Jul-21 03:29N 35°16' E 119°48'0 0.0
2014-Jul-21 02:18N 35°16' E 119°48'0 0.1
2014-Jul-21 01:30N 35°16' E 119°48'0 0.2
2014-Jul-21 00:30N 35°16' E 119°49'0 0.1
2014-Jul-20 23:30N 35°16' E 119°49'0 0.1
2014-Jul-20 22:30N 35°16' E 119°49'0 0.0
2014-Jul-20 21:30N 35°16' E 119°49'0 0.0
2014-Jul-20 20:30N 35°16' E 119°49'0 0.1
2014-Jul-20 19:30N 35°16' E 119°49'0 0.1
2014-Jul-20 18:30N 35°16' E 119°49'0 0.2
2014-Jul-20 17:30N 35°16' E 119°49'0 0.0
2014-Jul-20 16:30N 35°16' E 119°48'0 0.0
2014-Jul-20 15:30N 35°16' E 119°48'0 0.0
2014-Jul-20 14:29N 35°16' E 119°48'0 0.1
2014-Jul-20 13:30N 35°16' E 119°48'0 0.2
2014-Jul-20 12:30N 35°16' E 119°49'0 0.1
2014-Jul-20 11:30N 35°16' E 119°49'0 0.1
2014-Jul-20 10:30N 35°16' E 119°49'0 0.0
2014-Jul-20 09:29N 35°16' E 119°49'0 0.0
2014-Jul-20 08:30N 35°16' E 119°49'0 0.0
2014-Jul-20 07:29N 35°16' E 119°49'0 0.2
2014-Jul-20 06:30N 35°16' E 119°49'0 0.3
2014-Jul-20 05:30N 35°16' E 119°48'0 0.0
2014-Jul-20 04:30N 35°16' E 119°48'0 0.0
2014-Jul-20 03:29N 35°16' E 119°48'0 0.1
2014-Jul-20 02:30N 35°16' E 119°48'0 0.0
2014-Jul-20 01:30N 35°16' E 119°48'0 0.0
2014-Jul-20 00:30N 35°16' E 119°48'0 0.1
2014-Jul-19 23:30N 35°16' E 119°48'0 0.2
2014-Jul-19 22:30N 35°16' E 119°49'0 0.1
2014-Jul-19 21:29N 35°16' E 119°49'0 0.0
2014-Jul-19 20:30N 35°16' E 119°49'0 0.1
2014-Jul-19 19:30N 35°16' E 119°49'0 0.1
2014-Jul-19 18:30N 35°16' E 119°49'0 0.1
2014-Jul-19 17:24N 35°16' E 119°49'0 0.1
2014-Jul-19 16:32N 35°16' E 119°49'0 0.1
2014-Jul-19 15:29N 35°16' E 119°48'0 0.0
2014-Jul-19 14:29N 35°16' E 119°48'0 0.1
2014-Jul-19 13:30N 35°16' E 119°48'0 0.0
2014-Jul-19 12:30N 35°16' E 119°48'0 0.2
2014-Jul-19 11:24N 35°16' E 119°49'0 0.1
2014-Jul-19 10:30N 35°16' E 119°49'0 0.1
2014-Jul-19 09:30N 35°16' E 119°49'0 0.0
2014-Jul-19 08:30N 35°16' E 119°49'0 0.0
2014-Jul-19 07:30N 35°16' E 119°49'0 0.0
2014-Jul-19 06:30N 35°16' E 119°49'0 0.3
2014-Jul-19 05:29N 35°16' E 119°48'0 0.1
2014-Jul-19 04:30N 35°16' E 119°48'0 0.0
2014-Jul-19 03:30N 35°16' E 119°48'0 0.0
2014-Jul-19 02:30N 35°16' E 119°48'0 0.0
2014-Jul-19 01:24N 35°16' E 119°48'0 0.1
2014-Jul-19 00:24N 35°16' E 119°48'0 0.0
2014-Jul-18 23:30N 35°16' E 119°48'0 0.2
2014-Jul-18 22:30N 35°16' E 119°49'0 0.1
2014-Jul-18 21:23N 35°16' E 119°49'0 0.0
2014-Jul-18 20:29N 35°16' E 119°49'0 0.0
2014-Jul-18 19:30N 35°16' E 119°49'  

Dump ship's entire track history